TimeCST,TemperatureF,Dew PointF,Humidity,Sea Level PressureIn,VisibilityMPH,Wind Direction,Wind SpeedMPH,Gust SpeedMPH,PrecipitationIn,Events,Conditions,WindDirDegrees,DateUTC
12:01 AM,59.0,59.0,100,30.19,1.0,SSW,3.5,-,N/A,,Clear,200,2012-12-05 06:01:00
12:03 AM,60.8,60.8,100,30.18,1.2,South,3.5,-,N/A,,Clear,190,2012-12-05 06:03:00
12:06 AM,59.0,59.0,100,30.18,1.0,Calm,Calm,-,N/A,,Clear,0,2012-12-05 06:06:00
12:08 AM,59.0,59.0,100,30.18,0.8,Calm,Calm,-,N/A,,Clear,0,2012-12-05 06:08:00
12:09 AM,59.0,59.0,100,30.18,0.5,Calm,Calm,-,N/A,Fog,Fog,0,2012-12-05 06:09:00
12:13 AM,57.2,57.2,100,30.18,0.2,Calm,Calm,-,N/A,Fog,Fog,0,2012-12-05 06:13:00
12:38 AM,53.6,53.6,100,30.18,0.5,Calm,Calm,-,N/A,Fog,Fog,0,2012-12-05 06:38:00
12:41 AM,53.6,53.6,100,30.18,0.8,Calm,Calm,-,N/A,,Clear,0,2012-12-05 06:41:00
12:49 AM,53.6,53.6,100,30.18,0.5,Calm,Calm,-,N/A,Fog,Fog,0,2012-12-05 06:49:00
12:55 AM,54.1,53.8,99,30.19,0.5,Calm,Calm,-,N/A,Fog,Fog,0,2012-12-05 06:55:00
1:04 AM,53.6,53.6,100,30.18,0.8,Calm,Calm,-,N/A,,Clear,0,2012-12-05 07:04:00
1:06 AM,53.6,53.6,100,30.18,0.5,Calm,Calm,-,N/A,Fog,Fog,0,2012-12-05 07:06:00
1:15 AM,51.8,51.8,100,30.18,0.8,Calm,Calm,-,N/A,,Clear,0,2012-12-05 07:15:00
1:20 AM,53.6,51.8,94,30.18,1.0,Calm,Calm,-,N/A,,Clear,0,2012-12-05 07:20:00
1:29 AM,51.8,51.8,100,30.18,0.8,Calm,Calm,-,N/A,,Clear,0,2012-12-05 07:29:00
1:32 AM,53.6,51.8,94,30.18,0.5,Calm,Calm,-,N/A,Fog,Fog,0,2012-12-05 07:32:00
1:37 AM,53.6,53.6,100,30.18,0.2,Calm,Calm,-,N/A,Fog,Fog,0,2012-12-05 07:37:00
1:43 AM,53.6,51.8,94,30.18,0.5,Calm,Calm,-,N/A,Fog,Fog,0,2012-12-05 07:43:00
1:55 AM,52.3,52.0,99,30.18,0.5,Calm,Calm,-,N/A,Fog,Fog,0,2012-12-05 07:55:00
2:02 AM,51.8,51.8,100,30.18,0.8,Calm,Calm,-,N/A,,Clear,0,2012-12-05 08:02:00
2:09 AM,51.8,51.8,100,30.18,1.0,Calm,Calm,-,N/A,,Clear,0,2012-12-05 08:09:00
2:22 AM,51.8,51.8,100,30.18,1.2,Calm,Calm,-,N/A,,Clear,0,2012-12-05 08:22:00
2:27 AM,51.8,51.8,100,30.18,1.0,Calm,Calm,-,N/A,,Clear,0,2012-12-05 08:27:00
2:29 AM,51.8,51.8,100,30.18,0.8,Calm,Calm,-,N/A,,Clear,0,2012-12-05 08:29:00
2:31 AM,51.8,51.8,100,30.17,0.5,Calm,Calm,-,N/A,Fog,Fog,0,2012-12-05 08:31:00
2:46 AM,51.8,51.8,100,30.17,0.8,Calm,Calm,-,N/A,,Clear,0,2012-12-05 08:46:00
2:55 AM,51.1,50.7,99,30.17,0.8,Calm,Calm,-,N/A,,Clear,0,2012-12-05 08:55:00
2:59 AM,50.0,50.0,100,30.17,0.5,Calm,Calm,-,N/A,Fog,Fog,0,2012-12-05 08:59:00
3:06 AM,51.8,51.8,100,30.17,0.2,Calm,Calm,-,N/A,Fog,Fog,0,2012-12-05 09:06:00
3:11 AM,51.8,51.8,100,30.17,0.5,Calm,Calm,-,N/A,Fog,Fog,0,2012-12-05 09:11:00
3:18 AM,51.8,51.8,100,30.17,0.8,Calm,Calm,-,N/A,,Clear,0,2012-12-05 09:18:00
3:21 AM,51.8,51.8,100,30.17,0.5,Calm,Calm,-,N/A,Fog,Fog,0,2012-12-05 09:21:00
3:35 AM,50.0,50.0,100,30.17,0.8,Calm,Calm,-,N/A,,Clear,0,2012-12-05 09:35:00
3:38 AM,50.0,50.0,100,30.17,1.0,Calm,Calm,-,N/A,,Clear,0,2012-12-05 09:38:00
3:41 AM,50.0,50.0,100,30.17,1.2,ENE,3.5,-,N/A,,Clear,60,2012-12-05 09:41:00
3:45 AM,50.0,50.0,100,30.17,1.0,Calm,Calm,-,N/A,,Clear,0,2012-12-05 09:45:00
3:50 AM,50.0,50.0,100,30.17,0.8,Calm,Calm,-,N/A,,Clear,0,2012-12-05 09:50:00
3:55 AM,50.7,50.7,100,30.17,0.8,Calm,Calm,-,N/A,,Clear,0,2012-12-05 09:55:00
3:56 AM,51.8,51.8,100,30.17,1.0,Calm,Calm,-,N/A,,Clear,0,2012-12-05 09:56:00
3:58 AM,51.8,51.8,100,30.17,1.2,Calm,Calm,-,N/A,,Clear,0,2012-12-05 09:58:00
3:59 AM,51.8,51.8,100,30.17,1.5,Calm,Calm,-,N/A,,Clear,0,2012-12-05 09:59:00
4:01 AM,51.8,51.8,100,30.17,2.5,Calm,Calm,-,N/A,,Clear,0,2012-12-05 10:01:00
4:02 AM,51.8,51.8,100,30.17,3.0,Calm,Calm,-,N/A,,Clear,0,2012-12-05 10:02:00
4:07 AM,50.0,50.0,100,30.17,2.5,Calm,Calm,-,N/A,,Clear,0,2012-12-05 10:07:00
4:08 AM,50.0,50.0,100,30.17,1.8,Calm,Calm,-,N/A,,Clear,0,2012-12-05 10:08:00
4:09 AM,50.0,50.0,100,30.17,1.2,Calm,Calm,-,N/A,,Clear,0,2012-12-05 10:09:00
4:10 AM,50.0,50.0,100,30.17,1.0,Calm,Calm,-,N/A,,Clear,0,2012-12-05 10:10:00
4:12 AM,50.0,50.0,100,30.17,0.8,Calm,Calm,-,N/A,,Clear,0,2012-12-05 10:12:00
4:15 AM,50.0,50.0,100,30.17,0.5,Calm,Calm,-,N/A,Fog,Fog,0,2012-12-05 10:15:00
4:43 AM,50.0,50.0,100,30.18,0.8,Calm,Calm,-,N/A,,Clear,0,2012-12-05 10:43:00
4:46 AM,50.0,50.0,100,30.18,1.0,Calm,Calm,-,N/A,,Clear,0,2012-12-05 10:46:00
4:47 AM,50.0,50.0,100,30.18,1.2,Calm,Calm,-,N/A,,Clear,0,2012-12-05 10:47:00
4:48 AM,50.0,50.0,100,30.18,1.5,Calm,Calm,-,N/A,,Clear,0,2012-12-05 10:48:00
4:50 AM,48.2,48.2,100,30.18,1.2,Calm,Calm,-,N/A,,Clear,0,2012-12-05 10:50:00
4:52 AM,48.2,48.2,100,30.18,1.0,Calm,Calm,-,N/A,,Clear,0,2012-12-05 10:52:00
4:54 AM,48.2,48.2,100,30.18,0.8,Calm,Calm,-,N/A,,Clear,0,2012-12-05 10:54:00
4:55 AM,48.4,48.4,100,30.18,1.0,Calm,Calm,-,N/A,,Clear,0,2012-12-05 10:55:00
4:56 AM,48.2,48.2,100,30.18,0.5,Calm,Calm,-,N/A,Fog,Fog,0,2012-12-05 10:56:00
5:09 AM,48.2,48.2,100,30.18,0.8,Calm,Calm,-,N/A,,Clear,0,2012-12-05 11:09:00
5:12 AM,48.2,48.2,100,30.18,1.0,Calm,Calm,-,N/A,,Clear,0,2012-12-05 11:12:00
5:14 AM,48.2,48.2,100,30.18,1.2,Calm,Calm,-,N/A,,Clear,0,2012-12-05 11:14:00
5:15 AM,48.2,48.2,100,30.18,1.5,Calm,Calm,-,N/A,,Clear,0,2012-12-05 11:15:00
5:18 AM,48.2,48.2,100,30.18,2.0,Calm,Calm,-,N/A,,Clear,0,2012-12-05 11:18:00
5:22 AM,48.2,48.2,100,30.19,1.8,Calm,Calm,-,N/A,,Clear,0,2012-12-05 11:22:00
5:26 AM,48.2,48.2,100,30.19,1.2,Calm,Calm,-,N/A,,Clear,0,2012-12-05 11:26:00
5:28 AM,48.2,48.2,100,30.19,1.0,Calm,Calm,-,N/A,,Clear,0,2012-12-05 11:28:00
5:30 AM,48.2,48.2,100,30.19,0.8,Calm,Calm,-,N/A,,Clear,0,2012-12-05 11:30:00
5:33 AM,48.2,48.2,100,30.19,0.5,Calm,Calm,-,N/A,Fog,Fog,0,2012-12-05 11:33:00
5:55 AM,49.8,49.8,100,30.19,0.8,Calm,Calm,-,N/A,,Clear,0,2012-12-05 11:55:00
5:56 AM,50.0,50.0,100,30.19,1.0,Calm,Calm,-,N/A,,Clear,0,2012-12-05 11:56:00
5:58 AM,50.0,50.0,100,30.19,1.2,Calm,Calm,-,N/A,,Clear,0,2012-12-05 11:58:00
6:01 AM,50.0,50.0,100,30.19,1.5,Calm,Calm,-,N/A,,Clear,0,2012-12-05 12:01:00
6:06 AM,48.2,48.2,100,30.19,1.2,Calm,Calm,-,N/A,,Clear,0,2012-12-05 12:06:00
6:14 AM,48.2,48.2,100,30.18,1.5,Calm,Calm,-,N/A,,Clear,0,2012-12-05 12:14:00
6:23 AM,48.2,48.2,100,30.19,2.0,Calm,Calm,-,N/A,,Clear,0,2012-12-05 12:23:00
6:25 AM,48.2,48.2,100,30.19,2.5,Calm,Calm,-,N/A,,Clear,0,2012-12-05 12:25:00
6:27 AM,50.0,50.0,100,30.19,3.0,Calm,Calm,-,N/A,,Clear,0,2012-12-05 12:27:00
6:55 AM,49.8,49.8,100,30.19,10.0,East,3.5,-,N/A,,Clear,100,2012-12-05 12:55:00
8:55 AM,62.1,62.1,100,30.21,10.0,Calm,Calm,-,0.01,,Mostly Cloudy,0,2012-12-05 14:55:00
9:55 AM,66.9,60.3,79,30.20,10.0,East,4.6,-,N/A,,Mostly Cloudy,100,2012-12-05 15:55:00
10:55 AM,71.2,60.4,69,30.19,10.0,SSE,5.8,-,N/A,,Mostly Cloudy,150,2012-12-05 16:55:00
11:55 AM,72.0,59.5,65,30.15,10.0,ESE,4.6,-,N/A,,Mostly Cloudy,110,2012-12-05 17:55:00
12:55 PM,71.6,58.6,64,30.12,10.0,South,6.9,-,N/A,,Mostly Cloudy,180,2012-12-05 18:55:00
1:55 PM,73.0,59.0,61,30.09,10.0,SSE,5.8,-,N/A,,Mostly Cloudy,160,2012-12-05 19:55:00
2:55 PM,72.5,56.7,57,30.09,10.0,South,4.6,-,N/A,,Mostly Cloudy,180,2012-12-05 20:55:00
3:55 PM,71.1,57.7,63,30.08,10.0,South,6.9,-,N/A,,Mostly Cloudy,180,2012-12-05 21:55:00
4:55 PM,66.4,59.4,78,30.09,10.0,South,3.5,-,N/A,,Clear,170,2012-12-05 22:55:00
4:58 PM,66.4,59.4,78,30.09,10.0,South,3.5,-,N/A,,Mostly Cloudy,170,2012-12-05 22:58:00
5:55 PM,61.5,57.7,87,30.09,10.0,Calm,Calm,-,N/A,,Mostly Cloudy,0,2012-12-05 23:55:00
6:55 PM,59.5,58.5,96,30.09,10.0,Calm,Calm,-,N/A,,Mostly Cloudy,0,2012-12-06 00:55:00
7:55 PM,58.3,57.9,99,30.09,10.0,Calm,Calm,-,N/A,,Mostly Cloudy,0,2012-12-06 01:55:00
8:55 PM,57.6,57.4,99,30.09,10.0,Calm,Calm,-,N/A,,Mostly Cloudy,0,2012-12-06 02:55:00
9:55 PM,56.7,56.3,99,30.09,10.0,Calm,Calm,-,N/A,,Scattered Clouds,0,2012-12-06 03:55:00
10:55 PM,54.5,54.3,99,30.09,5.0,North,1.2,-,N/A,,Scattered Clouds,360,2012-12-06 04:55:00
11:55 PM,53.6,53.2,99,30.08,5.0,NNW,1.2,-,N/A,,Scattered Clouds,330,2012-12-06 05:55:00